FW7515 Weather Reports


Display with metric or nautical units.
time (UTC)temp
F
wind
direction
speed
MPH
gust
MPH
rain 1hr
in
rain 24hr
in
rain mn
in
humidity
%
barometer
mb
20260901060033 83 175 0.0 2.0 0.00 0.00 0.00 51 1015.4
20260901055531 84 129 0.0 2.0 0.00 0.00 0.00 50 1015.4
20260901055029 84 0.0 1.0 0.00 0.00 0.00 50 1015.4
20260901054527 84 181 0.0 2.0 0.00 0.00 0.00 49 1015.2
20260901054026 84 186 1.0 2.0 0.00 0.00 0.00 50 1015.3
20260901053524 84 153 0.0 1.0 0.00 0.00 0.00 49 1015.3
20260901053022 85 173 0.0 2.0 0.00 0.00 0.00 49 1015.4
20260901052520 85 144 0.0 2.0 0.00 0.00 0.00 48 1015.1
20260901052018 85 175 0.0 2.0 0.00 0.00 0.00 47 1015.1
20260901051516 85 178 1.0 2.0 0.00 0.00 0.00 47 1015.0
20260901051034 85 174 1.0 2.0 0.00 0.00 0.00 47 1015.0
20260901050533 84 180 0.0 1.0 0.00 0.00 0.00 48 1015.2
20260901050031 85 0.0 0.0 0.00 0.00 0.00 48 1015.1
20260901045549 85 0.0 0.0 0.00 0.00 0.00 47 1015.0
20260901045027 86 0.0 1.0 0.00 0.00 0.00 46 1014.9
20260901044526 86 167 1.0 2.0 0.00 0.00 0.00 46 1014.8
20260901044023 86 182 1.0 2.0 0.00 0.00 0.00 46 1015.0
20260901043521 86 178 1.0 2.0 0.00 0.00 0.00 46 1015.0
20260901043039 86 177 0.0 2.0 0.00 0.00 0.00 46 1015.0
20260901042517 86 190 1.0 2.0 0.00 0.00 0.00 47 1014.9
20260901042015 86 188 0.0 2.0 0.00 0.00 0.00 47 1014.9
20260901041553 87 176 0.0 2.0 0.00 0.00 0.00 46 1014.9
20260901041031 87 163 0.0 1.0 0.00 0.00 0.00 46 1015.2
20260901040529 87 0.0 1.0 0.00 0.00 0.00 46 1015.1
20260901040027 87 177 0.0 2.0 0.00 0.00 0.00 45 1015.2
20260901035524 87 190 0.0 2.0 0.00 0.00 0.00 45 1015.1
20260901035023 88 176 0.0 2.0 0.00 0.00 0.00 44 1015.1
20260901034522 88 0.0 2.0 0.00 0.00 0.00 44 1015.0
20260901034020 88 180 1.0 2.0 0.00 0.00 0.00 44 1015.0
20260901033517 88 190 1.0 2.0 0.00 0.00 0.00 44 1015.0
20260901033015 88 172 1.0 2.0 0.00 0.00 0.00 43 1015.0
20260901032534 88 147 1.0 2.0 0.00 0.00 0.00 43 1015.0
20260901032032 89 139 0.0 2.0 0.00 0.00 0.00 44 1014.9
20260901031530 89 187 1.0 2.0 0.00 0.00 0.00 43 1014.8
20260901031028 89 184 0.0 2.0 0.00 0.00 0.00 43 1015.0
20260901030527 89 184 0.0 2.0 0.00 0.00 0.00 43 1015.0
20260901030025 89 177 1.0 2.0 0.00 0.00 0.00 42 1014.8
20260901025543 90 186 1.0 2.0 0.00 0.00 0.00 42 1014.8
20260901025021 90 189 0.0 3.0 0.00 0.00 0.00 42 1014.8
20260901024520 90 178 1.0 2.0 0.00 0.00 0.00 42 1014.6
20260901024018 90 179 0.0 2.0 0.00 0.00 0.00 42 1014.7
20260901023516 90 193 1.0 2.0 0.00 0.00 0.00 41 1014.6
20260901023034 90 179 0.0 2.0 0.00 0.00 0.00 41 1014.5
20260901022533 91 171 0.0 2.0 0.00 0.00 0.00 41 1014.4
20260901022031 91 178 1.0 2.0 0.00 0.00 0.00 41 1014.3
20260901021529 91 182 1.0 2.0 0.00 0.00 0.00 40 1014.3
20260901021027 91 186 1.0 2.0 0.00 0.00 0.00 40 1014.4
20260901020526 92 182 0.0 2.0 0.00 0.00 0.00 40 1014.3
20260901020024 92 116 0.0 2.0 0.00 0.00 0.00 39 1014.2
20260901015523 92 188 0.0 2.0 0.00 0.00 0.00 39 1014.1
20260901015021 92 130 1.0 3.0 0.00 0.00 0.00 38 1014.1
20260901014519 92 183 1.0 4.0 0.00 0.00 0.00 38 1014.2
20260901014018 93 164 1.0 2.0 0.00 0.00 0.00 38 1014.0
20260901013516 93 192 0.0 2.0 0.00 0.00 0.00 38 1013.9
20260901013034 93 201 1.0 2.0 0.00 0.00 0.00 37 1013.9
20260901012532 94 198 1.0 3.0 0.00 0.00 0.00 37 1013.9
20260901012030 94 180 1.0 2.0 0.00 0.00 0.00 36 1013.9
20260901011548 94 203 1.0 4.0 0.00 0.00 0.00 36 1013.8
20260901011026 95 175 1.0 3.0 0.00 0.00 0.00 36 1013.7
20260901010544 95 185 2.0 4.0 0.00 0.00 0.00 35 1013.7
20260901010022 95 165 1.0 4.0 0.00 0.00 0.00 35 1013.8
20260901005520 95 169 3.0 8.0 0.00 0.00 0.00 35 1013.8
20260901005017 96 188 2.0 4.0 0.00 0.00 0.00 35 1013.9
20260901004535 96 186 2.0 6.0 0.00 0.00 0.00 35 1013.9
20260901004033 96 155 3.0 7.0 0.00 0.00 0.00 35 1013.9
20260901003530 97 140 4.0 12.0 0.00 0.00 0.00 34 1013.8
20260901003028 97 153 3.0 8.0 0.00 0.00 0.00 34 1013.8
20260901002528 97 144 3.0 7.0 0.00 0.00 0.00 34 1013.7
20260901002023 98 120 4.0 8.0 0.00 0.00 0.00 34 1013.7
20260901001521 98 145 2.0 5.0 0.00 0.00 0.00 34 1013.7
20260901001018 98 140 3.0 5.0 0.00 0.00 0.00 34 1013.8
20260901000516 98 142 2.0 6.0 0.00 0.00 0.00 34 1013.7
20260901000035 98 160 3.0 8.0 0.00 0.00 0.00 33 1013.8
20260831235553 98 144 2.0 11.0 0.00 0.00 0.00 33 1013.8
20260831235051 98 150 3.0 9.0 0.00 0.00 0.00 34 1013.7
20260831234530 98 140 3.0 6.0 0.00 0.00 0.00 33 1013.8
20260831234028 99 189 2.0 6.0 0.00 0.00 0.00 33 1013.7
20260831233526 99 182 2.0 5.0 0.00 0.00 0.00 33 1013.6
20260831233024 99 175 2.0 6.0 0.00 0.00 0.00 33 1013.6
20260831232521 99 173 3.0 7.0 0.00 0.00 0.00 33 1013.6
20260831232018 99 150 3.0 6.0 0.00 0.00 0.00 32 1013.6
20260831231535 99 170 2.0 5.0 0.00 0.00 0.00 33 1013.6
20260831231033 100 192 2.0 5.0 0.00 0.00 0.00 32 1013.7
20260831230531 100 167 2.0 5.0 0.00 0.00 0.00 31 1013.7
20260831230049 100 148 4.0 8.0 0.00 0.00 0.00 32 1013.7
20260831225527 100 154 3.0 8.0 0.00 0.00 0.00 31 1013.8
20260831225025 100 194 3.0 6.0 0.00 0.00 0.00 31 1013.8
20260831224524 99 132 3.0 9.0 0.00 0.00 0.00 32 1013.9
20260831224022 100 128 4.0 8.0 0.00 0.00 0.00 32 1013.9
20260831223520 101 162 3.0 6.0 0.00 0.00 0.00 32 1013.9
20260831223017 101 150 4.0 12.0 0.00 0.00 0.00 31 1014.0
20260831222535 101 141 4.0 12.0 0.00 0.00 0.00 31 1014.0
20260831222033 102 190 3.0 8.0 0.00 0.00 0.00 31 1014.1
20260831221551 101 168 3.0 5.0 0.00 0.00 0.00 31 1014.1
20260831221029 101 167 3.0 8.0 0.00 0.00 0.00 32 1014.1
20260831220547 101 151 3.0 9.0 0.00 0.00 0.00 31 1014.1
20260831220024 101 162 2.0 8.0 0.00 0.00 0.00 31 1014.4
20260831215522 100 131 4.0 10.0 0.00 0.00 0.00 32 1014.4
20260831215020 100 119 4.0 11.0 0.00 0.00 0.00 33 1014.4
20260831214519 100 131 4.0 12.0 0.00 0.00 0.00 33 1014.4
20260831214016 100 113 4.0 6.0 0.00 0.00 0.00 33 1014.5
20260831213555 101 138 3.0 6.0 0.00 0.00 0.00 32 1014.5
20260831213033 101 182 3.0 7.0 0.00 0.00 0.00 32 1014.5
20260831212530 101 116 4.0 9.0 0.00 0.00 0.00 33 1014.4
20260831212029 101 154 3.0 8.0 0.00 0.00 0.00 33 1014.6
20260831211527 102 181 4.0 9.0 0.00 0.00 0.00 32 1014.7
20260831211025 101 205 4.0 9.0 0.00 0.00 0.00 33 1014.8
20260831210523 100 151 4.0 12.0 0.00 0.00 0.00 33 1014.7
20260831210021 99 112 4.0 7.0 0.00 0.00 0.00 34 1014.8
20260831205519 99 140 4.0 9.0 0.00 0.00 0.00 34 1014.8
20260831205017 99 175 3.0 7.0 0.00 0.00 0.00 34 1014.9
20260831204535 99 132 5.0 12.0 0.00 0.00 0.00 34 1015.0
20260831204033 100 131 4.0 11.0 0.00 0.00 0.00 34 1015.1
20260831203530 100 111 6.0 12.0 0.00 0.00 0.00 34 1015.2
20260831203029 100 149 4.0 10.0 0.00 0.00 0.00 34 1015.2
20260831202527 100 126 4.0 15.0 0.00 0.00 0.00 34 1015.3
20260831202044 99 133 5.0 12.0 0.00 0.00 0.00 34 1015.4
20260831201522 100 120 6.0 13.0 0.00 0.00 0.00 34 1015.4
20260831201040 100 169 4.0 7.0 0.00 0.00 0.00 34 1015.5
20260831200518 101 139 4.0 11.0 0.00 0.00 0.00 33 1015.5
20260831200015 100 181 3.0 11.0 0.00 0.00 0.00 34 1015.7
20260831195534 101 189 4.0 7.0 0.00 0.00 0.00 33 1015.6
20260831195052 101 186 4.0 11.0 0.00 0.00 0.00 32 1015.7
20260831194530 101 182 4.0 9.0 0.00 0.00 0.00 32 1015.7
20260831194028 100 168 4.0 7.0 0.00 0.00 0.00 33 1016.0
20260831193527 100 163 4.0 10.0 0.00 0.00 0.00 33 1015.9
20260831193025 100 168 4.0 13.0 0.00 0.00 0.00 34 1016.0
20260831192543 99 159 4.0 7.0 0.00 0.00 0.00 35 1016.1
20260831192041 99 139 5.0 14.0 0.00 0.00 0.00 35 1016.1
20260831191519 100 140 3.0 8.0 0.00 0.00 0.00 34 1016.1
20260831191037 101 209 3.0 8.0 0.00 0.00 0.00 32 1016.2
20260831190516 101 151 4.0 8.0 0.00 0.00 0.00 34 1016.1
20260831190035 100 158 4.0 10.0 0.00 0.00 0.00 34 1016.2
20260831185532 100 183 3.0 8.0 0.00 0.00 0.00 34 1016.2
20260831185110 101 169 3.0 9.0 0.00 0.00 0.00 33 1016.3
20260831184548 100 190 4.0 10.0 0.00 0.00 0.00 34 1016.4
20260831184026 100 203 5.0 10.0 0.00 0.00 0.00 35 1016.4
20260831183525 100 226 6.0 13.0 0.00 0.00 0.00 35 1016.4
20260831183023 100 187 3.0 8.0 0.00 0.00 0.00 35 1016.5
20260831182541 99 170 4.0 12.0 0.00 0.00 0.00 35 1016.6
20260831182019 99 126 6.0 13.0 0.00 0.00 0.00 36 1016.8
20260831181517 100 181 2.0 7.0 0.00 0.00 0.00 36 1016.9
20260831181036 100 196 3.0 8.0 0.00 0.00 0.00 36 1016.9
20260831180534 99 197 5.0 11.0 0.00 0.00 0.00 37 1017.0
20260831180052 99 209 4.0 8.0 0.00 0.00 0.00 37 1017.0
20260831175549 99 155 5.0 11.0 0.00 0.00 0.00 37 1017.3
20260831175048 100 217 3.0 6.0 0.00 0.00 0.00 37 1017.2
20260831174525 99 193 3.0 8.0 0.00 0.00 0.00 36 1017.3
20260831174023 99 201 3.0 9.0 0.00 0.00 0.00 37 1017.5
20260831173522 99 214 4.0 13.0 0.00 0.00 0.00 37 1017.4
20260831173020 99 210 3.0 11.0 0.00 0.00 0.00 37 1017.5
20260831172559 98 193 3.0 7.0 0.00 0.00 0.00 37 1017.5
20260831172037 98 188 3.0 6.0 0.00 0.00 0.00 37 1017.6
20260831171534 98 212 3.0 6.0 0.00 0.00 0.00 38 1017.6
20260831171032 97 208 3.0 6.0 0.00 0.00 0.00 38 1017.7
20260831170550 96 222 3.0 9.0 0.00 0.00 0.00 40 1017.6
20260831170028 96 223 5.0 10.0 0.00 0.00 0.00 40 1017.7
20260831165527 96 216 5.0 11.0 0.00 0.00 0.00 40 1017.5
20260831165024 95 219 4.0 11.0 0.00 0.00 0.00 40 1017.7
20260831164522 96 223 5.0 12.0 0.00 0.00 0.00 40 1017.7
20260831164021 97 231 3.0 9.0 0.00 0.00 0.00 40 1017.7
20260831163539 96 185 3.0 6.0 0.00 0.00 0.00 40 1017.6
20260831163017 95 222 5.0 11.0 0.00 0.00 0.00 41 1017.7
20260831162515 95 223 5.0 13.0 0.00 0.00 0.00 40 1017.8
20260831162034 95 219 5.0 12.0 0.00 0.00 0.00 39 1017.9
20260831161531 94 215 4.0 11.0 0.00 0.00 0.00 40 1017.9
20260831161030 94 208 4.0 10.0 0.00 0.00 0.00 41 1017.8
20260831160528 94 207 3.0 8.0 0.00 0.00 0.00 41 1017.9
20260831160026 94 220 3.0 7.0 0.00 0.00 0.00 44 1017.9
20260831155525 93 228 2.0 7.0 0.00 0.00 0.00 45 1017.8
20260831155043 92 226 4.0 9.0 0.00 0.00 0.00 46 1017.8
20260831154541 92 219 3.0 8.0 0.00 0.00 0.00 46 1017.7
20260831154019 92 214 3.0 7.0 0.00 0.00 0.00 46 1017.9
20260831153517 91 219 3.0 8.0 0.00 0.00 0.00 47 1017.8
20260831153016 91 221 5.0 11.0 0.00 0.00 0.00 47 1017.6
20260831152554 90 226 5.0 10.0 0.00 0.00 0.00 48 1017.5
20260831152033 90 218 6.0 13.0 0.00 0.00 0.00 49 1017.5
20260831151550 90 225 4.0 11.0 0.00 0.00 0.00 50 1017.6
20260831151028 89 218 6.0 11.0 0.00 0.00 0.00 50 1017.6
20260831150527 89 221 6.0 13.0 0.00 0.00 0.00 50 1017.5
20260831150025 89 227 5.0 13.0 0.00 0.00 0.00 50 1017.6
20260831145523 89 220 6.0 13.0 0.00 0.00 0.00 51 1017.5
20260831145021 90 220 3.0 8.0 0.00 0.00 0.00 52 1017.4
20260831144520 89 221 2.0 6.0 0.00 0.00 0.00 53 1017.4
20260831144018 88 217 4.0 10.0 0.00 0.00 0.00 54 1017.5
20260831143516 88 222 3.0 6.0 0.00 0.00 0.00 54 1017.5
20260831143054 87 207 3.0 6.0 0.00 0.00 0.00 55 1017.6
20260831142532 87 221 5.0 13.0 0.00 0.00 0.00 56 1017.5
20260831142030 87 224 4.0 11.0 0.00 0.00 0.00 56 1017.5
20260831141548 87 223 4.0 9.0 0.00 0.00 0.00 57 1017.6
20260831141026 86 210 4.0 10.0 0.00 0.00 0.00 58 1017.4
20260831140524 86 215 3.0 9.0 0.00 0.00 0.00 58 1017.4
20260831140022 86 213 3.0 8.0 0.00 0.00 0.00 59 1017.4
20260831135540 85 213 3.0 8.0 0.00 0.00 0.00 59 1017.2
20260831135019 85 215 5.0 9.0 0.00 0.00 0.00 61 1017.2
20260831134517 85 215 4.0 9.0 0.00 0.00 0.00 62 1017.1
20260831134035 84 216 3.0 6.0 0.00 0.00 0.00 63 1016.9
20260831133553 84 200 2.0 6.0 0.00 0.00 0.00 64 1016.8
20260831133051 83 219 2.0 6.0 0.00 0.00 0.00 65 1016.8
20260831132529 83 188 2.0 7.0 0.00 0.00 0.00 66 1016.8
20260831132026 83 198 3.0 6.0 0.00 0.00 0.00 66 1016.9
20260831131525 83 192 2.0 6.0 0.00 0.00 0.00 67 1016.7
20260831131023 82 188 2.0 4.0 0.00 0.00 0.00 67 1016.7
20260831130521 82 177 2.0 4.0 0.00 0.00 0.00 68 1016.5
20260831130018 81 188 2.0 4.0 0.00 0.00 0.00 68 1016.6
20260831125556 81 322 2.0 3.0 0.00 0.00 0.00 69 1016.6
20260831125034 81 171 1.0 4.0 0.00 0.00 0.00 69 1016.5
20260831124532 81 183 2.0 4.0 0.00 0.00 0.00 69 1016.3
20260831124030 81 193 2.0 4.0 0.00 0.00 0.00 69 1016.1
20260831123528 80 184 1.0 3.0 0.00 0.00 0.00 70 1016.1
20260831123026 80 199 1.0 3.0 0.00 0.00 0.00 69 1016.2
20260831122524 80 196 2.0 4.0 0.00 0.00 0.00 69 1016.1
20260831122022 80 185 2.0 4.0 0.00 0.00 0.00 70 1016.0
20260831121520 80 198 2.0 4.0 0.00 0.00 0.00 70 1015.8
20260831121018 80 187 1.0 3.0 0.00 0.00 0.00 70 1015.8
20260831120516 80 308 2.0 3.0 0.00 0.00 0.00 69 1015.7
20260831120034 80 221 1.0 3.0 0.00 0.00 0.00 69 1015.7
20260831115612 81 221 1.0 4.0 0.00 0.00 0.00 69 1015.7
20260831115030 81 203 2.0 4.0 0.00 0.00 0.00 68 1015.7
20260831114548 81 199 2.0 4.0 0.00 0.00 0.00 67 1015.6
20260831114026 81 197 2.0 5.0 0.00 0.00 0.00 67 1015.6
20260831113524 81 211 2.0 6.0 0.00 0.00 0.00 68 1015.6
20260831113022 81 203 3.0 7.0 0.00 0.00 0.00 68 1015.6
20260831112521 81 213 2.0 4.0 0.00 0.00 0.00 67 1015.5
20260831112019 81 192 2.0 4.0 0.00 0.00 0.00 67 1015.4
20260831111517 81 215 2.0 4.0 0.00 0.00 0.00 67 1015.3
20260831111034 81 333 2.0 5.0 0.00 0.00 0.00 66 1015.3
20260831110532 82 282 2.0 4.0 0.00 0.00 0.00 66 1015.3
20260831110030 82 209 2.0 4.0 0.00 0.00 0.00 65 1015.2
20260831105528 82 224 1.0 4.0 0.00 0.00 0.00 65 1015.1
20260831105026 82 210 3.0 4.0 0.00 0.00 0.00 65 1015.3
20260831104524 82 209 2.0 4.0 0.00 0.00 0.00 64 1015.3
20260831104022 82 223 2.0 6.0 0.00 0.00 0.00 64 1015.3
20260831103520 82 235 1.0 3.0 0.00 0.00 0.00 64 1015.4
20260831103018 83 203 2.0 6.0 0.00 0.00 0.00 63 1015.4
20260831102557 82 219 3.0 6.0 0.00 0.00 0.00 64 1015.3
20260831102016 82 223 2.0 6.0 0.00 0.00 0.00 63 1015.3
20260831101554 83 219 3.0 5.0 0.00 0.00 0.00 63 1015.3
20260831101033 83 230 2.0 6.0 0.00 0.00 0.00 63 1015.2
20260831100531 83 214 2.0 6.0 0.00 0.00 0.00 62 1015.3
20260831100029 83 218 2.0 5.0 0.00 0.00 0.00 62 1015.2
20260831095547 83 220 2.0 7.0 0.00 0.00 0.00 61 1015.1
20260831095025 83 223 1.0 4.0 0.00 0.00 0.00 61 1015.1
20260831094525 84 209 2.0 7.0 0.00 0.00 0.00 61 1015.1
20260831094021 83 226 2.0 6.0 0.00 0.00 0.00 61 1015.2
20260831093539 83 202 2.0 5.0 0.00 0.00 0.00 61 1015.2
20260831093017 83 226 2.0 5.0 0.00 0.00 0.00 61 1015.1
20260831092534 84 212 2.0 6.0 0.00 0.00 0.00 61 1015.0
20260831092032 84 221 2.0 6.0 0.00 0.00 0.00 60 1015.0
20260831091530 84 226 3.0 7.0 0.00 0.00 0.00 59 1014.8
20260831091027 84 222 2.0 8.0 0.00 0.00 0.00 59 1014.9
20260831090525 85 225 2.0 6.0 0.00 0.00 0.00 58 1014.9
20260831090023 85 212 2.0 5.0 0.00 0.00 0.00 58 1015.0
20260831085521 85 222 2.0 5.0 0.00 0.00 0.00 57 1014.9
20260831085018 85 222 3.0 9.0 0.00 0.00 0.00 57 1014.9
20260831084529 85 220 3.0 8.0 0.00 0.00 0.00 57 1014.8
20260831084034 85 231 3.0 6.0 0.00 0.00 0.00 57 1015.1
20260831083532 85 224 4.0 9.0 0.00 0.00 0.00 56 1015.1
20260831083031 85 216 4.0 9.0 0.00 0.00 0.00 57 1015.1
20260831082529 85 224 4.0 10.0 0.00 0.00 0.00 57 1015.2
20260831082028 85 213 3.0 9.0 0.00 0.00 0.00 57 1015.1
20260831081526 86 216 3.0 6.0 0.00 0.00 0.00 57 1015.1
20260831081025 86 220 4.0 7.0 0.00 0.00 0.00 57 1014.9
20260831080523 86 230 4.0 9.0 0.00 0.00 0.00 56 1014.9
20260831080041 86 217 5.0 10.0 0.00 0.00 0.00 56 1014.9
20260831075520 85 220 4.0 7.0 0.00 0.00 0.00 56 1014.7
20260831075037 85 220 3.0 6.0 0.00 0.00 0.00 55 1014.8
20260831074535 86 221 3.0 7.0 0.00 0.00 0.00 54 1014.7
20260831074033 86 219 3.0 6.0 0.00 0.00 0.00 53 1014.7
20260831073531 85 233 3.0 7.0 0.00 0.00 0.00 53 1014.8
20260831073109 85 213 3.0 6.0 0.00 0.00 0.00 53 1014.8
20260831072527 85 223 2.0 6.0 0.00 0.00 0.00 53 1014.6
20260831072025 85 215 2.0 5.0 0.00 0.00 0.00 52 1014.7
20260831071544 85 224 2.0 5.0 0.00 0.00 0.00 51 1014.7
20260831071022 85 231 2.0 4.0 0.00 0.00 0.00 51 1014.7
20260831070519 85 233 1.0 4.0 0.00 0.00 0.00 51 1014.7
20260831070017 85 210 2.0 5.0 0.00 0.00 0.00 51 1014.6
20260831065555 85 213 2.0 5.0 0.00 0.00 0.00 50 1014.7
20260831065033 85 210 2.0 4.0 0.00 0.00 0.00 50 1014.9
20260831064530 85 194 2.0 4.0 0.00 0.00 0.00 50 1014.9
20260831064028 85 183 1.0 4.0 0.00 0.00 0.00 49 1014.9
20260831063527 86 175 2.0 4.0 0.00 0.00 0.00 49 1014.9
20260831063025 85 192 1.0 4.0 0.00 0.00 0.00 49 1014.7
20260831062524 85 197 1.0 3.0 0.00 0.00 0.00 49 1014.8
20260831062104 85 172 1.0 4.0 0.00 0.00 0.00 49 1014.8
20260831061519 86 170 2.0 4.0 0.00 0.00 0.00 49 1014.7
20260831061017 86 197 1.0 4.0 0.00 0.00 0.00 49 1014.6
20260831060515 86 187 2.0 4.0 0.00 0.00 0.00 49 1014.7